SWA616 KMCO-MYNN

Flight info

Callsign SWA616
Flight time 0h 51m
Altitude 37000
Route DDANY3 JIPOD DCT JUNIP DCT ZFP BR63V ZQA
Aircraft B737/M-SDE2E3FGHIRWXY/LB1

Departure

Time 2026-04-24 21:14
Airport Orlando International Airport (KMCO)

Arrival

Time 2026-04-24 22:05
Airport Lynden Pindling International Airport (MYNN)
Time Latitude Longitude Altitude Speed Heading
2026-04-24 20:44 28.43548 -81.30056 94 ft 0 kts 254°
2026-04-24 20:49 28.43548 -81.30058 94 ft 0 kts 254°
2026-04-24 21:03 28.43549 -81.30052 95 ft 4 kts 254°
2026-04-24 21:04 28.43554 -81.30032 94 ft 4 kts 254°
2026-04-24 21:04 28.43560 -81.30009 94 ft 4 kts 250°
2026-04-24 21:04 28.43572 -81.29985 94 ft 4 kts 204°
2026-04-24 21:04 28.43594 -81.29982 94 ft 3 kts 179°
2026-04-24 21:05 28.43598 -81.29982 94 ft 0 kts 179°
2026-04-24 21:09 28.43596 -81.29982 94 ft 1 kts 179°
2026-04-24 21:09 28.43578 -81.29980 94 ft 5 kts 162°
2026-04-24 21:10 28.43552 -81.29932 94 ft 10 kts 105°
2026-04-24 21:10 28.43548 -81.29844 94 ft 10 kts 89°
2026-04-24 21:10 28.43549 -81.29779 93 ft 10 kts 89°
2026-04-24 21:10 28.43550 -81.29702 94 ft 8 kts 89°
2026-04-24 21:11 28.43550 -81.29692 94 ft 0 kts 90°
2026-04-24 21:12 28.43550 -81.29681 94 ft 3 kts 90°
2026-04-24 21:12 28.43550 -81.29637 96 ft 8 kts 91°
2026-04-24 21:12 28.43515 -81.29588 96 ft 9 kts 164°
2026-04-24 21:12 28.43480 -81.29587 96 ft 0 kts 179°
2026-04-24 21:13 28.43466 -81.29587 96 ft 11 kts 179°
2026-04-24 21:13 28.43132 -81.29584 97 ft 85 kts 179°
2026-04-24 21:13 28.42320 -81.29575 99 ft 145 kts 181°
2026-04-24 21:13 28.41239 -81.29560 501 ft 160 kts 181°
2026-04-24 21:14 28.40090 -81.29545 1154 ft 170 kts 181°
2026-04-24 21:14 28.38799 -81.29509 1440 ft 196 kts 176°
2026-04-24 21:14 28.37585 -81.28938 2343 ft 193 kts 145°
2026-04-24 21:14 28.36406 -81.28009 2739 ft 220 kts 148°
2026-04-24 21:15 28.35046 -81.26980 2984 ft 250 kts 147°
2026-04-24 21:15 28.33716 -81.25633 3642 ft 263 kts 124°
2026-04-24 21:15 28.33012 -81.23713 4574 ft 266 kts 106°
2026-04-24 21:15 28.32557 -81.21653 5434 ft 272 kts 103°
2026-04-24 21:16 28.32131 -81.19536 6296 ft 278 kts 104°
2026-04-24 21:16 28.31699 -81.17372 7195 ft 284 kts 104°
2026-04-24 21:16 28.31255 -81.15167 8078 ft 290 kts 104°
2026-04-24 21:16 28.30794 -81.12911 8987 ft 296 kts 103°
2026-04-24 21:17 28.30323 -81.10625 9928 ft 301 kts 104°
2026-04-24 21:17 28.29833 -81.08264 10607 ft 317 kts 104°
2026-04-24 21:17 28.29301 -81.05719 10948 ft 342 kts 103°
2026-04-24 21:17 28.28743 -81.03061 11724 ft 350 kts 103°
2026-04-24 21:18 28.28174 -81.00353 12570 ft 356 kts 103°
2026-04-24 21:18 28.27601 -80.97635 13390 ft 361 kts 103°
2026-04-24 21:18 28.27014 -80.94856 13759 ft 365 kts 103°
2026-04-24 21:18 28.26420 -80.92048 13872 ft 366 kts 103°
2026-04-24 21:19 28.25826 -80.89242 13947 ft 365 kts 103°
2026-04-24 21:19 28.25231 -80.86432 13985 ft 365 kts 103°
2026-04-24 21:19 28.24635 -80.83628 14003 ft 366 kts 103°
2026-04-24 21:19 28.24040 -80.80825 14014 ft 366 kts 103°
2026-04-24 21:20 28.22845 -80.75205 14004 ft 367 kts 103°
2026-04-24 21:20 28.22246 -80.72395 14003 ft 367 kts 103°
2026-04-24 21:20 28.21647 -80.69588 13999 ft 366 kts 103°
2026-04-24 21:21 28.21025 -80.66788 13987 ft 366 kts 107°
2026-04-24 21:21 28.20215 -80.64053 13974 ft 365 kts 110°
2026-04-24 21:21 28.19309 -80.61364 13983 ft 364 kts 112°
2026-04-24 21:21 28.18386 -80.58693 13986 ft 364 kts 112°
2026-04-24 21:22 28.17468 -80.56017 13981 ft 364 kts 111°
2026-04-24 21:22 28.16574 -80.53375 13969 ft 364 kts 111°
2026-04-24 21:22 28.15676 -80.50694 13974 ft 364 kts 111°
2026-04-24 21:22 28.14784 -80.48012 13982 ft 363 kts 111°
2026-04-24 21:23 28.13895 -80.45334 13985 ft 363 kts 111°
2026-04-24 21:23 28.13003 -80.42643 14042 ft 368 kts 111°
2026-04-24 21:23 28.12096 -80.39910 14816 ft 373 kts 111°
2026-04-24 21:23 28.11184 -80.37167 15882 ft 372 kts 111°
2026-04-24 21:24 28.10214 -80.34447 16775 ft 375 kts 118°
2026-04-24 21:24 28.08739 -80.31980 17515 ft 381 kts 133°
2026-04-24 21:24 28.06773 -80.29976 18331 ft 382 kts 147°
2026-04-24 21:24 28.04553 -80.28303 19138 ft 386 kts 149°
2026-04-24 21:25 28.02273 -80.26668 19891 ft 391 kts 150°
2026-04-24 21:25 27.99948 -80.25021 20617 ft 397 kts 150°
2026-04-24 21:25 27.97597 -80.23348 21351 ft 402 kts 150°
2026-04-24 21:25 27.95218 -80.21643 22041 ft 406 kts 149°
2026-04-24 21:26 27.92821 -80.19913 22707 ft 411 kts 149°
2026-04-24 21:26 27.90398 -80.18156 23350 ft 416 kts 149°
2026-04-24 21:26 27.87977 -80.16396 23964 ft 421 kts 149°
2026-04-24 21:26 27.85500 -80.14592 24577 ft 425 kts 148°
2026-04-24 21:27 27.82996 -80.12769 25172 ft 430 kts 149°
2026-04-24 21:27 27.80473 -80.10932 25756 ft 433 kts 149°
2026-04-24 21:27 27.77928 -80.09080 26331 ft 437 kts 149°
2026-04-24 21:27 27.75358 -80.07211 26876 ft 441 kts 149°
2026-04-24 21:28 27.72763 -80.05326 27395 ft 445 kts 149°
2026-04-24 21:28 27.70149 -80.03428 27912 ft 448 kts 149°
2026-04-24 21:28 27.67515 -80.01517 28401 ft 452 kts 149°
2026-04-24 21:28 27.64863 -79.99594 28890 ft 455 kts 149°
2026-04-24 21:29 27.62184 -79.97652 29364 ft 459 kts 149°
2026-04-24 21:29 27.59526 -79.95727 29841 ft 461 kts 149°
2026-04-24 21:29 27.56783 -79.93741 30283 ft 464 kts 149°
2026-04-24 21:29 27.54087 -79.91791 30698 ft 467 kts 149°
2026-04-24 21:30 27.51348 -79.89810 31145 ft 469 kts 149°
2026-04-24 21:30 27.48594 -79.87821 31576 ft 471 kts 149°
2026-04-24 21:30 27.45832 -79.85825 32000 ft 472 kts 149°
2026-04-24 21:30 27.43072 -79.83833 32538 ft 469 kts 149°
2026-04-24 21:31 27.40342 -79.81862 33146 ft 464 kts 149°
2026-04-24 21:31 27.37628 -79.79905 33689 ft 461 kts 149°
2026-04-24 21:31 27.34929 -79.77961 34130 ft 460 kts 149°
2026-04-24 21:31 27.32232 -79.76018 34519 ft 460 kts 149°
2026-04-24 21:32 27.29536 -79.74078 34923 ft 459 kts 149°
2026-04-24 21:32 27.26861 -79.72136 35359 ft 457 kts 147°
2026-04-24 21:32 27.24386 -79.69892 35746 ft 459 kts 138°
2026-04-24 21:32 27.22238 -79.67235 36079 ft 461 kts 130°
2026-04-24 21:33 27.20287 -79.64375 36384 ft 461 kts 129°
2026-04-24 21:33 27.19012 -79.62461 36575 ft 462 kts 128°
2026-04-24 21:33 27.16452 -79.58595 36967 ft 462 kts 128°
2026-04-24 21:34 27.12544 -79.52758 36970 ft 467 kts 129°
2026-04-24 21:34 27.08664 -79.47040 36951 ft 458 kts 129°
2026-04-24 21:35 27.04794 -79.41374 36973 ft 458 kts 129°
2026-04-24 21:35 27.00907 -79.35693 36964 ft 459 kts 130°
2026-04-24 21:36 26.97014 -79.30009 36970 ft 460 kts 130°
2026-04-24 21:36 26.93119 -79.24326 36976 ft 460 kts 130°
2026-04-24 21:37 26.89215 -79.18637 36973 ft 460 kts 130°
2026-04-24 21:37 26.85307 -79.12950 36970 ft 460 kts 130°
2026-04-24 21:38 26.81427 -79.07310 36973 ft 459 kts 130°
2026-04-24 21:38 26.77529 -79.01652 36973 ft 458 kts 130°
2026-04-24 21:39 26.73634 -78.96004 36979 ft 457 kts 130°
2026-04-24 21:39 26.69752 -78.90384 36980 ft 456 kts 130°
2026-04-24 21:40 26.65880 -78.84783 36979 ft 454 kts 130°
2026-04-24 21:40 26.62018 -78.79205 36982 ft 453 kts 130°
2026-04-24 21:41 26.58170 -78.73650 36980 ft 452 kts 130°
2026-04-24 21:41 26.54320 -78.68112 36978 ft 450 kts 131°
2026-04-24 21:42 26.50449 -78.62629 36982 ft 449 kts 131°
2026-04-24 21:42 26.46611 -78.57201 36979 ft 448 kts 131°
2026-04-24 21:42 26.44649 -78.54426 36500 ft 452 kts 131°
2026-04-24 21:43 26.42706 -78.51690 35992 ft 448 kts 131°
2026-04-24 21:43 26.40793 -78.49006 35307 ft 449 kts 131°
2026-04-24 21:43 26.38844 -78.46275 34615 ft 450 kts 131°
2026-04-24 21:43 26.36895 -78.43545 33896 ft 451 kts 132°
2026-04-24 21:44 26.34936 -78.40800 33147 ft 452 kts 132°
2026-04-24 21:44 26.32976 -78.38055 32421 ft 452 kts 132°
2026-04-24 21:44 26.31028 -78.35325 31891 ft 448 kts 132°
2026-04-24 21:44 26.29099 -78.32622 31332 ft 444 kts 132°
2026-04-24 21:45 26.27184 -78.29942 30795 ft 440 kts 132°
2026-04-24 21:45 26.25285 -78.27287 30245 ft 436 kts 132°
2026-04-24 21:45 26.23403 -78.24657 29724 ft 432 kts 133°
2026-04-24 21:45 26.21537 -78.22052 29178 ft 428 kts 132°
2026-04-24 21:46 26.19690 -78.19475 28668 ft 423 kts 132°
2026-04-24 21:46 26.17861 -78.16922 28123 ft 420 kts 132°
2026-04-24 21:46 26.16046 -78.14390 27580 ft 416 kts 132°
2026-04-24 21:46 26.14248 -78.11883 27034 ft 413 kts 132°
2026-04-24 21:47 26.12461 -78.09394 26489 ft 410 kts 132°
2026-04-24 21:47 26.11281 -78.07752 26126 ft 408 kts 132°
2026-04-24 21:47 26.08920 -78.04466 25398 ft 405 kts 131°
2026-04-24 21:47 26.07166 -78.02026 24849 ft 403 kts 131°
2026-04-24 21:48 26.05422 -77.99601 24302 ft 400 kts 131°
2026-04-24 21:48 26.03685 -77.97188 23762 ft 398 kts 131°
2026-04-24 21:48 26.01962 -77.94795 23219 ft 396 kts 131°
2026-04-24 21:48 26.00241 -77.92405 22675 ft 394 kts 131°
2026-04-24 21:49 25.98556 -77.90067 22141 ft 392 kts 131°
2026-04-24 21:49 25.96855 -77.87706 21598 ft 390 kts 131°
2026-04-24 21:49 25.95166 -77.85364 21057 ft 387 kts 131°
2026-04-24 21:49 25.93484 -77.83034 20516 ft 385 kts 131°
2026-04-24 21:50 25.92374 -77.81498 20123 ft 384 kts 131°
2026-04-24 21:50 25.90700 -77.79182 19543 ft 384 kts 131°
2026-04-24 21:50 25.89032 -77.76876 19003 ft 381 kts 131°
2026-04-24 21:50 25.87377 -77.74588 18477 ft 379 kts 131°
2026-04-24 21:51 25.85731 -77.72313 17934 ft 377 kts 131°
2026-04-24 21:51 25.84091 -77.70048 17398 ft 374 kts 131°
2026-04-24 21:51 25.82462 -77.67799 16861 ft 372 kts 131°
2026-04-24 21:51 25.80846 -77.65568 16336 ft 369 kts 131°
2026-04-24 21:52 25.79241 -77.63354 15808 ft 367 kts 131°
2026-04-24 21:52 25.77646 -77.61155 15284 ft 364 kts 131°
2026-04-24 21:52 25.76062 -77.58972 14752 ft 362 kts 131°
2026-04-24 21:52 25.74492 -77.56809 14236 ft 359 kts 130°
2026-04-24 21:53 25.72932 -77.54661 13714 ft 356 kts 130°
2026-04-24 21:53 25.71385 -77.52532 13226 ft 353 kts 130°
2026-04-24 21:53 25.69835 -77.50479 13023 ft 339 kts 138°
2026-04-24 21:53 25.67944 -77.49097 13013 ft 318 kts 160°
2026-04-24 21:54 25.65874 -77.48465 12997 ft 307 kts 176°
2026-04-24 21:54 25.63797 -77.48279 12903 ft 292 kts 181°
2026-04-24 21:54 25.61790 -77.48204 12413 ft 287 kts 182°
2026-04-24 21:54 25.59754 -77.48132 11513 ft 298 kts 181°
2026-04-24 21:55 25.57687 -77.48033 11095 ft 295 kts 180°
2026-04-24 21:55 25.55638 -77.47917 10688 ft 294 kts 180°
2026-04-24 21:55 25.53601 -77.47796 10320 ft 293 kts 180°
2026-04-24 21:55 25.51584 -77.47888 9928 ft 289 kts 198°
2026-04-24 21:56 25.49720 -77.48659 9600 ft 285 kts 205°
2026-04-24 21:56 25.47894 -77.49520 9240 ft 285 kts 205°
2026-04-24 21:56 25.46076 -77.50386 8885 ft 284 kts 205°
2026-04-24 21:56 25.44259 -77.51246 8532 ft 284 kts 205°
2026-04-24 21:57 25.42444 -77.52099 8178 ft 283 kts 204°
2026-04-24 21:57 25.40628 -77.52947 7824 ft 283 kts 204°
2026-04-24 21:57 25.38819 -77.53789 7472 ft 282 kts 204°
2026-04-24 21:57 25.37010 -77.54629 7122 ft 281 kts 204°
2026-04-24 21:58 25.35206 -77.55464 6771 ft 280 kts 204°
2026-04-24 21:58 25.33408 -77.56296 6422 ft 279 kts 204°
2026-04-24 21:58 25.31625 -77.57120 6072 ft 275 kts 204°
2026-04-24 21:58 25.29892 -77.57919 5723 ft 264 kts 204°
2026-04-24 21:59 25.28227 -77.58688 5387 ft 254 kts 203°
2026-04-24 21:59 25.26623 -77.59428 5083 ft 246 kts 203°
2026-04-24 21:59 25.25068 -77.60146 4782 ft 238 kts 203°
2026-04-24 21:59 25.23566 -77.60838 4495 ft 230 kts 203°
2026-04-24 22:00 25.22104 -77.61512 4212 ft 225 kts 202°
2026-04-24 22:00 25.20673 -77.62167 3941 ft 222 kts 200°
2026-04-24 22:00 25.19162 -77.62303 3644 ft 222 kts 161°
2026-04-24 22:00 25.17883 -77.61402 3483 ft 218 kts 140°
2026-04-24 22:01 25.16722 -77.60349 3197 ft 213 kts 138°
2026-04-24 22:01 25.15649 -77.59253 2926 ft 207 kts 135°
2026-04-24 22:01 25.14668 -77.58172 2672 ft 197 kts 134°
2026-04-24 22:01 25.13727 -77.57120 2404 ft 188 kts 134°
2026-04-24 22:02 25.12831 -77.56119 2156 ft 179 kts 134°
2026-04-24 22:02 25.11993 -77.55183 1932 ft 164 kts 135°
2026-04-24 22:02 25.11224 -77.54326 1728 ft 152 kts 135°
2026-04-24 22:02 25.10490 -77.53506 1556 ft 150 kts 135°
2026-04-24 22:03 25.09749 -77.52680 1337 ft 152 kts 135°
2026-04-24 22:03 25.09035 -77.51883 1115 ft 140 kts 136°
2026-04-24 22:03 25.08382 -77.51154 986 ft 130 kts 136°
2026-04-24 22:03 25.07758 -77.50458 797 ft 127 kts 136°
2026-04-24 22:04 25.07134 -77.49762 627 ft 128 kts 136°
2026-04-24 22:04 25.06508 -77.49056 463 ft 128 kts 136°
2026-04-24 22:04 25.05879 -77.48349 290 ft 129 kts 135°
2026-04-24 22:04 25.05243 -77.47637 104 ft 130 kts 135°
2026-04-24 22:05 25.04630 -77.46957 20 ft 114 kts 135°
2026-04-24 22:05 25.04224 -77.46504 17 ft 50 kts 134°
2026-04-24 22:05 25.04131 -77.46329 17 ft 17 kts 109°
2026-04-24 22:05 25.04099 -77.46223 17 ft 13 kts 104°
2026-04-24 22:06 25.04142 -77.46162 16 ft 12 kts 342°
2026-04-24 22:06 25.04204 -77.46226 16 ft 12 kts 314°
2026-04-24 22:06 25.04262 -77.46292 17 ft 12 kts 315°
2026-04-24 22:06 25.04319 -77.46356 18 ft 12 kts 315°
2026-04-24 22:07 25.04375 -77.46417 16 ft 11 kts 315°
2026-04-24 22:07 25.04433 -77.46481 16 ft 13 kts 315°
2026-04-24 22:07 25.04501 -77.46557 16 ft 15 kts 315°
2026-04-24 22:07 25.04578 -77.46642 17 ft 16 kts 314°
2026-04-24 22:08 25.04663 -77.46735 17 ft 18 kts 316°
2026-04-24 22:08 25.04757 -77.46837 17 ft 19 kts 314°
2026-04-24 22:08 25.04830 -77.46919 17 ft 15 kts 314°
2026-04-24 22:08 25.04922 -77.46933 16 ft 14 kts 20°
2026-04-24 22:09 25.04983 -77.46866 16 ft 13 kts 66°
2026-04-24 22:09 25.05010 -77.46800 16 ft 5 kts 66°
2026-04-24 22:09 25.05042 -77.46773 16 ft 7 kts 25°
2026-04-24 22:09 25.05075 -77.46755 16 ft 2 kts 26°
2026-04-24 22:10 25.05082 -77.46751 16 ft 0 kts 26°